Regional Weather Roundup
Issued by NWS

Home | Current Version | Previous Version | Graphics & Text | Print | Product List | Glossary On
Versions: 1 2 3 4 5 6 7 8 9 10 11 12 13 14 15 16 17 18 19 20 21 22 23 24 25 26 27 28 29 30 31 32 33 34 35 36 37 38 39 40 41 42 43 44 45 46 47 48 49 50
000
ASUS43 KDMX 122006
RWRIA

WEATHER ROUNDUP FOR IOWA
NATIONAL WEATHER SERVICE DES MOINES IA
200 PM CST TUE DEC 12 2017

NOTE: "FAIR" INDICATES FEW OR NO CLOUDS BELOW 12,000 FEET WITH NO
SIGNIFICANT WEATHER AND/OR OBSTRUCTIONS TO VISIBILITY.

* - THESE STATIONS ARE NOT NWS STATIONS...THUS NOT UNDER NWS
QUALITY CONTROL.  THEY ALSO DO NOT REPORT WEATHER SUCH
AS PRECIPITATION OR FOG.

IAZ001>003-012>014-020>022-031>034-043>046-122100-
   NORTHWEST IOWA

CITY           SKY/WX    TMP DP  RH WIND       PRES   REMARKS
CARROLL *      CLOUDY    34  19  55 W14       30.10F WCI  24
CHEROKEE *     CLOUDY    36  24  64 W10G18    30.07F WCI  28
DENISON *      CLOUDY    36  21  55 SW10      30.12F WCI  28
LE MARS *      CLOUDY    37  27  65 S12       30.07F WCI  30
ORANGE CITY *  CLOUDY    37  28  70 SW12      30.05F WCI  30
SHELDON *      CLOUDY    36  27  69 SW12G18   30.03F WCI  27
SIOUX CITY     CLOUDY    40  27  59 S8        30.10F WCI  34
SPENCER        CLOUDY    35  23  61 W15       30.05F WCI  25
STORM LAKE *   CLOUDY    36  23  60 W15       30.06F WCI  26
$$

IAZ055>058-069>071-079>083-090>094-122100-
   SOUTHWEST IOWA

CITY           SKY/WX    TMP DP  RH WIND       PRES   REMARKS
ATLANTIC *     SUNNY     36  19  51 W13       30.15F WCI  27
AUDUBON *      CLOUDY    34  19  55 W8        30.13F WCI  27
CLARINDA *     SUNNY     36  21  55 W10         N/A  WCI  28
COUNCIL BLFS * PTSUNNY   36  23  60 SW13      30.13F WCI  27
CRESTON *      SUNNY     34  18  51 W14       30.16F WCI  24
HARLAN  *      CLOUDY    36  21  55 SW10      30.16F WCI  28
LAMONI         SUNNY     32  10  40 W10       30.15F WCI  24
RED OAK *      MOSUNNY   36  21  55 W13       30.17F WCI  27
SHENANDOAH *   SUNNY     37  21  52 SW10      30.18F WCI  30
$$

IAZ047>049-059>061-072>074-084-122100-
   CENTRAL IOWA

CITY           SKY/WX    TMP DP  RH WIND       PRES   REMARKS
AMES           SUNNY     32  14  47 W14       30.13F WCI  22
ANKENY *       SUNNY     30  10  43 W13       30.15F WCI  20
BOONE *        SUNNY     32  16  51 W10G16    30.10F WCI  24
CHARITON *     SUNNY     32   5  32 W10       30.14F WCI  24
DES MOINES     MOSUNNY   32  10  40 W9        30.14F WCI  24
GRINNELL*      SUNNY     28   2  32 W10       30.14F WCI  19
KNOXVILLE *    SUNNY     30   1  29 W12G18    30.13F WCI  21
MARSHALLTOWN   SUNNY     28   7  41 W12       30.13F WCI  18
NEWTON *       SUNNY     28   5  37 NW12G17   30.14F WCI  18
PELLA *        SUNNY     30   2  30 W12       30.15F WCI  20
PERRY *          N/A     32  16  51 W12       30.13F WCI  23
$$

IAZ004>006-015-016-023>025-035-036-122100-
   NORTH CENTRAL IOWA

CITY           SKY/WX    TMP DP  RH WIND       PRES   REMARKS
ALGONA *       CLOUDY    34  23  64 W13       30.05F WCI  25
CLARION *      CLOUDY    32  19  59 W12       30.06F WCI  23
ESTHERVILLE    CLOUDY    32  23  69 SW16      30.03F WCI  21
FORT DODGE *   MOSUNNY   32  19  58 W10G18    30.09F WCI  24
MASON CITY     CLOUDY    26  14  60 SW8       30.06F WCI  18
FOREST CITY *  CLOUDY    30  19  64 W9        30.04F WCI  22
WEBSTER CITY * PTSUNNY   32  16  51 W12       30.07F WCI  23
IOWA FALLS *     N/A     30  13  49 W10       30.12F HAZE    WCI  21
$$

IAZ007>011-017>019-026>030-037>042-050>054-066-122100-
   NORTHEAST IOWA

CITY           SKY/WX    TMP DP  RH WIND       PRES   REMARKS
CEDAR RAPIDS   SUNNY     27   4  37 NW16      30.11F WCI  15
CHARLES CITY * CLOUDY    23   7  50 W8        30.08F WCI  14
CLINTON *      SUNNY     26  10  50 W15       30.10F WCI  14
DECORAH *      CLOUDY    21   7  53 W6        30.05F WCI  14
DUBUQUE        SUNNY     20   6  55 NW14      30.08F WCI   7
MONTICELLO *   SUNNY     27   5  39 NW13G20   30.10F WCI  16
OELWEIN *      CLOUDY    23   3  42 W14G21    30.10F WCI  11
WATERLOO       CLOUDY    25   3  38 W9        30.11F WCI  15
$$

IAZ064-065-067-068-078-122100-
   EAST CENTRAL IOWA

CITY           SKY/WX    TMP DP  RH WIND       PRES   REMARKS
DAVENPORT      SUNNY     27   4  37 NW15G23   30.13F WCI  15
IOWA CITY      SUNNY     29   3  33 W12       30.15F WCI  19
MT. PLEASANT * SUNNY     30   1  29 NW12      30.16S WCI  20
MUSCATINE *    SUNNY     28   3  34 W13       30.15F WCI  18
QUAD CITIES    SUNNY     29   5  36 NW14      30.11F WCI  18
$$

IAZ062-063-075>077-085>089-095>099-122100-
   SOUTHEAST IOWA

CITY           SKY/WX    TMP DP  RH WIND       PRES   REMARKS
BURLINGTON     SUNNY     30   4  33 W14G20    30.15F WCI  19
FAIRFIELD *    SUNNY     30  -2  24 W10G17    30.14F WCI  21
FORT MADISON * SUNNY     30   1  29 W14       30.16S WCI  20
KEOKUK *       SUNNY     30   3  31 W9        30.15F WCI  22
OSKALOOSA *      N/A     30   1  28 W12       30.15F WCI  20
OTTUMWA        SUNNY     30   1  29 W12       30.13F WCI  20
WASHINGTON *   SUNNY     28   1  31 W13       30.14F WCI  18
$$

ABBREVIATIONS USED IN REMARKS
   TC - TEMPERATURES IN CELSIUS
  WCI - WIND CHILL INDEX
   HX - HEAT INDEX
  VSB - VISIBILITY
$$





USA.gov is the U.S. government's official web portal to all federal, state and local government web resources and services.